Regional Weather Roundup
Issued by NWS

Home | Current Version | Previous Version | Text Only | Print | Product List | Glossary Off
Versions: 1 2 3 4 5 6 7 8 9 10 11 12 13 14 15 16 17 18 19 20 21 22 23 24 25 26 27 28 29 30 31 32 33 34 35 36 37 38 39 40 41 42 43 44 45 46 47 48 49 50

000
ASUS43 KLSX 191657
RWRMO

WEATHER SUMMARY FOR MISSOURI
NATIONAL WEATHER SERVICE SPRINGFIELD MO
1100 AM CST THU JAN 19 2017

NOTE: "FAIR" INDICATES FEW OR NO CLOUDS BELOW 12,000 FEET WITH NO
       SIGNIFICANT WEATHER AND/OR OBSTRUCTIONS TO VISIBILITY.
       CURRENT SKY AND/OR WEATHER CONDITIONS ARE NOT AVAILABLE FOR
       CHILLICOTHE AND FARMINGTON.

MOZ001>031-035>038-043-044-053-054-191800-
...NORTHERN AND WESTERN MISSOURI...

CITY           SKY/WX    TMP DP  RH WIND       PRES   REMARKS
KANSAS CTY INT CLOUDY    46  43  89 S8        29.78F
LEE`S SUMMIT   FOG       46  46 100 S7        29.80F VSB 1/2
ST JOSEPH      CLOUDY    45  45 100 S6        29.80F
CHILLICOTHE      N/A     44  44 100 SE7       29.83S

$$
MOZ066>068-077>081-088>096-101>105-191800-
...SOUTHWEST MISSOURI...

CITY           SKY/WX    TMP DP  RH WIND       PRES   REMARKS
SPRINGFIELD    CLOUDY    48  46  93 SE8       29.80F
JOPLIN         CLOUDY    50  48  93 SE8       29.79F
BRANSON        FOG       45  45 100 CALM      29.83F VSB 1/2

$$
MOZ032>034-039>042-045>050-055>058-069>072-191800-
...CENTRAL MISSOURI...

CITY           SKY/WX    TMP DP  RH WIND       PRES   REMARKS
COLUMBIA       CLOUDY    44  44 100 E9        29.83F FOG
JEFFERSON CITY CLOUDY    46  44  93 SE10      29.85F
ROLLA          CLOUDY    45  45 100 E10       29.82F
SEDALIA        CLOUDY    48  46  93 SE8       29.83F
WARRENSBURG    CLOUDY    45  45 100 SE8       29.82S FOG

$$
MOZ051-052-059>065-191800-
...EAST CENTRAL MISSOURI...

CITY           SKY/WX    TMP DP  RH WIND       PRES   REMARKS
ST LOUIS INTL  LGT RAIN  46  43  89 SE9       29.87F FOG

$$
MOZ072>076-082>087-097>100-106>115-191800-
...SOUTH CENTRAL AND SOUTHEAST MISSOURI...

CITY           SKY/WX    TMP DP  RH WIND       PRES   REMARKS
CAPE GIRARDEAU CLOUDY    49  47  93 E7        29.86F
POPLAR BLUFF   FOG       48  48 100 NE7       29.85F VSB 1
WEST PLAINS    FOG       46  46 100 SE3       29.86F VSB 1/4

$$


USA.gov is the U.S. government's official web portal to all federal, state and local government web resources and services.